Flag for Germany Weather past 2 weeks in Salzwedel, Saxony-Anhalt, Germany

Now
59 °F

Partly sunny.


Feels Like: 58 °F
Forecast: 53 / 68 °F
Wind: 6 mph from West

Location: Fassberg

Current Time: Aug 31, 2014 at 11:10:29 AM

Latest Report: Aug 31, 2014 at 10:20 AM


Visibility: 5 mi

Pressure: 29.92 "Hg

Humidity: 88%

Dew point: 55 °F

Location of SalzwedelLocation

Historic Weather in Salzwedel — Graph

°F

Salzwedel temperature yesterday

Maximum temperature yesterday: 66 °F (at 3:20 PM)
Minimum temperature yesterday: 54 °F (at 12:20 AM)
Average temperature yesterday: 60 °F

Past Weeks' High & Low Weather Summary

 TemperatureHumidityPressure
High73 °F (Aug 28, 2:20 PM)100% (Aug 17, 9:50 PM)30.07 "Hg (Aug 17, 9:50 PM)
Low37 °F (Aug 28, 6:20 AM)36% (Aug 28, 3:20 PM)29.56 "Hg (Aug 18, 9:20 AM)
Average56 °F78%29.89 "Hg
* Reported Aug 16 9:20 AM — Aug 31 9:20 AM, Salzwedel, Weather by CustomWeather, © 2014

Note: Actual official high and low records may vary slightly from our data, if they occured in-between our weather recording intervals... More about our weather records

Advertising

Salzwedel weather history for previous 24 hours

 ConditionsComfort  
Time TempWeatherWind HumidityBarometerVisibility
9:20 AM
Aug 31
57 °FPartly sunny.7 mph94%29.92 "Hg4 mi
8:20 AM57 °FPartly sunny.6 mph94%29.92 "Hg4 mi
7:20 AM55 °FPassing clouds.7 mph100%29.92 "Hg4 mi
6:20 AM55 °FPassing clouds.6 mph100%29.92 "Hg4 mi
5:20 AM55 °FFog.7 mph100%29.89 "Hg2 mi
4:20 AM57 °FLight rain. Fog.9 mph94%29.92 "Hg3 mi
3:20 AM57 °FFog.7 mph94%29.92 "Hg3 mi
2:20 AM57 °FFog.9 mph94%29.92 "Hg3 mi
1:20 AM59 °FFog.7 mph94%29.95 "Hg3 mi
12:20 AM59 °FFog.6 mph94%29.95 "Hg2 mi
11:20 PM
Aug 30
61 °FLight rain. Fog.8 mph94%29.95 "Hg3 mi
10:20 PM61 °FPassing clouds.7 mph94%29.95 "Hg4 mi
9:20 PM61 °FPassing clouds.7 mph94%29.95 "Hg4 mi
8:20 PM61 °FPartly sunny.9 mph94%29.95 "Hg6 mi
7:20 PM61 °FRain. Partly sunny.6 mph94%29.95 "Hg4 mi
6:20 PM61 °FPartly sunny.9 mph94%29.95 "Hg6 mi
5:20 PM61 °FRain. Partly sunny.8 mph94%29.98 "HgN/A
4:20 PM64 °FPartly sunny.10 mph78%29.98 "HgN/A
3:20 PM66 °FPartly sunny.9 mph73%29.98 "HgN/A
2:20 PM64 °FPartly sunny.10 mph78%29.98 "HgN/A
1:20 PM63 °FPartly sunny.9 mph83%29.98 "HgN/A
12:20 PM61 °FLight rain. Partly sunny.9 mph88%29.98 "HgN/A
11:20 AM61 °FPartly sunny.13 mph83%29.98 "HgN/A
Weather by CustomWeather, © 2014

See weather overviewHow to use our weather pages